Regional Weather Roundup
Issued by NWS

Home | Current Version | Previous Version | Text Only | Print | Product List | Glossary Off
Versions: 1 2 3 4 5 6 7 8 9 10 11 12 13 14 15 16 17 18 19 20 21 22 23 24 25 26 27 28 29 30 31 32 33 34 35 36 37 38 39 40 41 42 43 44 45 46 47 48 49 50

000
ASUS43 KBIS 290610
RWRND

NORTH DAKOTA REGIONAL WEATHER ROUNDUP
NATIONAL WEATHER SERVICE BISMARCK ND
100 AM CDT FRI JUL 29 2016

NOTE: "FAIR" INDICATES FEW OR NO CLOUDS BELOW 12,000 FEET WITH NO
SIGNIFICANT WEATHER AND/OR OBSTRUCTIONS TO VISIBILITY.


NDZ001>003-009>011-017-290700-
NORTHWEST NORTH DAKOTA

CITY           SKY/WX    TMP DP  RH WIND       PRES   REMARKS
WILLISTON      PTCLDY    56  52  86 CALM      30.13S
6HR MIN TEMP:  55; 6HR MAX TEMP:  76;

MINOT          CLOUDY    62  53  72 CALM      30.12S
$$

NDZ018>021-031>035-040>046-290700-
SOUTHWEST NORTH DAKOTA

CITY           SKY/WX    TMP DP  RH WIND       PRES   REMARKS
BISMARCK       MOCLDY    66  56  70 NW3       30.12S
6HR MIN TEMP:  66; 6HR MAX TEMP:  73;

DICKINSON      CLOUDY    59  57  93 CALM      30.14S
GARRISON         N/A     58  56  93 N5        30.13S
6HR MIN TEMP:  58; 6HR MAX TEMP:  73;

HETTINGER ARPT PTCLDY    53  52  96 CALM      30.17S FOG
$$

NDZ004>008-012>016-024-026-027-054-290700-
NORTHEAST NORTH DAKOTA

CITY           SKY/WX    TMP DP  RH WIND       PRES   REMARKS
GRAND FORKS    CLEAR     57  53  86 NW3       30.10S
DEVILS LAKE    CLEAR     60  57  89 CALM      30.14S
$$

NDZ022-023-025-028>030-036>039-047>053-290700-
SOUTHEAST NORTH DAKOTA

CITY           SKY/WX    TMP DP  RH WIND       PRES   REMARKS
FARGO          CLOUDY    64  58  80 N5        30.09S
6HR MIN TEMP:  62; 6HR MAX TEMP:  77;

JAMESTOWN      MOCLDY    63  60  90 E5        30.11F
$$




USA.gov is the U.S. government's official web portal to all federal, state and local government web resources and services.